When you browse on this site, cookies collect data to enhance your experience and personalize the content and advertising you see.
Visit our Privacy Policy to learn more. By continuing to use the site, you agree to this use of cookies and data.

Hourly Weather Yeghegnadzor

Today, 10 August, Monday

Time Temperature Precipitation Wind Pressure Humidity
00:00 +21°C° 0 mm 2 mps 650 mmHg 55%
01:00 +20°C° 0 mm 2 mps 650 mmHg 54%
02:00 +20°C° 0 mm 2 mps 650 mmHg 52%
03:00 +20°C° 0 mm 2 mps 650 mmHg 51%
04:00 +20°C° 0 mm 2 mps 650 mmHg 51%
05:00 +20°C° 0 mm 2 mps 650 mmHg 50%
06:00 +21°C° 0 mm 1 mps 651 mmHg 50%
07:00 +24°C° 0 mm 1 mps 651 mmHg 44%
08:00 +26°C° 0 mm 1 mps 652 mmHg 37%
09:00 +28°C° 0 mm 1 mps 652 mmHg 31%
10:00 +29°C° 0 mm 1 mps 652 mmHg 29%
11:00 +31°C° 0 mm 1 mps 652 mmHg 27%
12:00 +32°C° 0 mm 2 mps 653 mmHg 25%
13:00 +32°C° 0 mm 2 mps 652 mmHg 24%
14:00 +34°C° 0 mm 2 mps 652 mmHg 23%
15:00 +34°C° 0 mm 3 mps 651 mmHg 22%
16:00 +33°C° 0 mm 3 mps 651 mmHg 26%
17:00 +31°C° 0 mm 3 mps 651 mmHg 31%
18:00 +30°C° 0 mm 3 mps 651 mmHg 36%
19:00 +28°C° 0 mm 3 mps 651 mmHg 43%
20:00 +26°C° 0 mm 3 mps 650 mmHg 50%
21:00 +24°C° 0 mm 3 mps 650 mmHg 57%
22:00 +24°C° 0 mm 3 mps 650 mmHg 59%
23:00 +23°C° 0 mm 2 mps 650 mmHg 61%

Tomorrow, 11 August, Tuesday

Time Temperature Precipitation Wind Pressure Humidity
00:00 +23°C° 0 mm 2 mps 651 mmHg 64%
01:00 +21°C° 0 mm 2 mps 650 mmHg 65%
02:00 +21°C° 0 mm 2 mps 650 mmHg 65%
03:00 +20°C° 0 mm 2 mps 650 mmHg 66%
04:00 +21°C° 0 mm 2 mps 651 mmHg 66%
05:00 +21°C° 0 mm 2 mps 651 mmHg 66%
06:00 +22°C° 0 mm 1 mps 651 mmHg 66%
07:00 +24°C° 0 mm 1 mps 651 mmHg 59%
08:00 +25°C° 0 mm 1 mps 652 mmHg 53%
09:00 +27°C° 0 mm 1 mps 652 mmHg 46%
10:00 +28°C° 0 mm 2 mps 652 mmHg 42%
11:00 +30°C° 0 mm 2 mps 652 mmHg 39%
12:00 +31°C° 0 mm 2 mps 652 mmHg 36%
13:00 +31°C° 0 mm 3 mps 652 mmHg 34%
14:00 +33°C° 0 mm 3 mps 651 mmHg 32%
15:00 +33°C° 0 mm 3 mps 651 mmHg 30%
16:00 +31°C° 0 mm 3 mps 651 mmHg 34%
17:00 +31°C° 0 mm 2 mps 651 mmHg 37%
18:00 +30°C° 0 mm 2 mps 651 mmHg 41%
19:00 +28°C° 0 mm 2 mps 651 mmHg 49%
20:00 +26°C° 0 mm 3 mps 651 mmHg 57%
21:00 +24°C° 0 mm 3 mps 651 mmHg 65%
22:00 +22°C° 0 mm 3 mps 651 mmHg 66%
23:00 +23°C° 0 mm 2 mps 651 mmHg 68%

Day after tomorrow, 12 August, Wednesday

Time Temperature Precipitation Wind Pressure Humidity
00:00 +21°C° 0 mm 2 mps 651 mmHg 69%
01:00 +21°C° 0 mm 2 mps 651 mmHg 71%
02:00 +20°C° 0 mm 2 mps 651 mmHg 72%
03:00 +20°C° 0 mm 2 mps 650 mmHg 73%
04:00 +20°C° 0 mm 2 mps 651 mmHg 72%
05:00 +20°C° 0 mm 2 mps 651 mmHg 72%
06:00 +21°C° 0 mm 1 mps 652 mmHg 72%
07:00 +23°C° 0 mm 1 mps 652 mmHg 66%
08:00 +24°C° 0 mm 1 mps 652 mmHg 60%
09:00 +26°C° 0 mm 1 mps 653 mmHg 54%
10:00 +27°C° 0.1 mm 2 mps 653 mmHg 51%
11:00 +28°C° 0.1 mm 2 mps 653 mmHg 48%
12:00 +29°C° 0.1 mm 2 mps 653 mmHg 45%
13:00 +30°C° 0.1 mm 2 mps 653 mmHg 43%
14:00 +30°C° 0.1 mm 2 mps 653 mmHg 41%
15:00 +31°C° 0.1 mm 2 mps 652 mmHg 40%
16:00 +30°C° 0.1 mm 2 mps 652 mmHg 41%
17:00 +30°C° 0.1 mm 2 mps 652 mmHg 43%
18:00 +29°C° 0.1 mm 2 mps 652 mmHg 44%
19:00 +27°C° 0 mm 2 mps 652 mmHg 51%
20:00 +26°C° 0 mm 3 mps 652 mmHg 58%
21:00 +24°C° 0 mm 3 mps 652 mmHg 64%
22:00 +23°C° 0 mm 2 mps 652 mmHg 65%
23:00 +23°C° 0 mm 2 mps 652 mmHg 65%

13 August, Thursday

Time Temperature Precipitation Wind Pressure Humidity
00:00 +21°C° 0 mm 2 mps 652 mmHg 66%
01:00 +21°C° 0 mm 2 mps 651 mmHg 66%
02:00 +20°C° 0 mm 2 mps 651 mmHg 66%
03:00 +20°C° 0 mm 2 mps 651 mmHg 66%
04:00 +20°C° 0 mm 2 mps 651 mmHg 65%
05:00 +21°C° 0 mm 1 mps 651 mmHg 64%
06:00 +21°C° 0 mm 1 mps 651 mmHg 63%
07:00 +23°C° 0 mm 1 mps 652 mmHg 57%
08:00 +25°C° 0 mm 1 mps 652 mmHg 51%
09:00 +27°C° 0 mm 1 mps 652 mmHg 44%
10:00 +28°C° 0 mm 1 mps 652 mmHg 41%
11:00 +29°C° 0 mm 2 mps 652 mmHg 37%
12:00 +31°C° 0 mm 2 mps 652 mmHg 34%
13:00 +31°C° 0 mm 2 mps 652 mmHg 33%
14:00 +31°C° 0 mm 2 mps 651 mmHg 32%
15:00 +32°C° 0 mm 2 mps 651 mmHg 31%
16:00 +31°C° 0.1 mm 2 mps 651 mmHg 34%
17:00 +30°C° 0.1 mm 2 mps 651 mmHg 36%
18:00 +30°C° 0.1 mm 2 mps 651 mmHg 39%
19:00 +28°C° 0.1 mm 2 mps 651 mmHg 46%
20:00 +26°C° 0.1 mm 2 mps 651 mmHg 52%
21:00 +24°C° 0.1 mm 3 mps 651 mmHg 59%
22:00 +23°C° 0 mm 2 mps 651 mmHg 60%
23:00 +23°C° 0 mm 2 mps 650 mmHg 62%

14 August, Friday

Time Temperature Precipitation Wind Pressure Humidity
00:00 +23°C° 0 mm 2 mps 650 mmHg 63%
01:00 +21°C° 0 mm 2 mps 650 mmHg 64%
02:00 +21°C° 0 mm 2 mps 650 mmHg 64%
03:00 +21°C° 0 mm 2 mps 650 mmHg 65%
04:00 +20°C° 0 mm 2 mps 650 mmHg 65%
05:00 +21°C° 0 mm 1 mps 650 mmHg 64%
06:00 +21°C° 0 mm 1 mps 650 mmHg 64%
07:00 +23°C° 0 mm 1 mps 650 mmHg 59%
08:00 +24°C° 0 mm 1 mps 651 mmHg 53%
09:00 +26°C° 0 mm 1 mps 651 mmHg 47%
10:00 +27°C° 0.3 mm 1 mps 651 mmHg 45%
11:00 +28°C° 0.3 mm 2 mps 651 mmHg 42%
12:00 +29°C° 0.3 mm 2 mps 650 mmHg 40%
13:00 +30°C° 0.4 mm 2 mps 650 mmHg 39%
14:00 +30°C° 0.4 mm 2 mps 650 mmHg 39%
15:00 +30°C° 0.4 mm 3 mps 649 mmHg 38%
16:00 +29°C° 0.4 mm 2 mps 649 mmHg 40%
17:00 +29°C° 0.4 mm 2 mps 649 mmHg 42%
18:00 +28°C° 0.4 mm 2 mps 649 mmHg 44%
19:00 +26°C° 0.3 mm 2 mps 649 mmHg 51%
20:00 +24°C° 0.3 mm 3 mps 649 mmHg 58%
21:00 +22°C° 0.3 mm 3 mps 649 mmHg 64%
22:00 +21°C° 0.4 mm 3 mps 649 mmHg 66%
23:00 +21°C° 0.4 mm 2 mps 649 mmHg 68%

15 August, Saturday

Time Temperature Precipitation Wind Pressure Humidity
00:00 +21°C° 0.4 mm 2 mps 649 mmHg 69%
01:00 +20°C° 0.2 mm 2 mps 649 mmHg 69%
02:00 +20°C° 0.2 mm 2 mps 649 mmHg 70%
03:00 +20°C° 0.2 mm 2 mps 649 mmHg 70%
04:00 +20°C° 0.2 mm 2 mps 650 mmHg 71%
05:00 +21°C° 0.2 mm 1 mps 650 mmHg 71%
06:00 +21°C° 0.2 mm 1 mps 650 mmHg 72%
07:00 +21°C° 0.3 mm 1 mps 650 mmHg 69%
08:00 +22°C° 0.3 mm 1 mps 650 mmHg 65%
09:00 +23°C° 0.3 mm 1 mps 651 mmHg 62%
10:00 +23°C° 0.5 mm 1 mps 651 mmHg 60%
11:00 +24°C° 0.5 mm 1 mps 651 mmHg 59%
12:00 +24°C° 0.5 mm 1 mps 651 mmHg 57%
13:00 +25°C° 0.4 mm 2 mps 651 mmHg 55%
14:00 +25°C° 0.4 mm 2 mps 651 mmHg 54%
15:00 +26°C° 0.4 mm 2 mps 651 mmHg 52%
16:00 +25°C° 0.1 mm 2 mps 651 mmHg 54%
17:00 +25°C° 0.1 mm 3 mps 651 mmHg 56%
18:00 +24°C° 0.1 mm 3 mps 651 mmHg 58%
19:00 +22°C° 0.2 mm 3 mps 651 mmHg 63%
20:00 +21°C° 0.2 mm 2 mps 651 mmHg 68%
21:00 +20°C° 0.2 mm 2 mps 652 mmHg 72%
22:00 +19°C° 0 mm 2 mps 652 mmHg 73%
23:00 +19°C° 0 mm 2 mps 651 mmHg 73%
Show more